Location: Casteau
(50.5142°N, 4.0161°E)
Time: 23:01:21
(UTC+00:00)

Transit 2A - Pass Details

Date: 04 August 2021
Orbit: 594 x 964 km, 66.7° (Epoch: 26 September)

Event Time Altitude Azimuth Distance (km) Brightness Sun altitude
Rises 05:13:13 0° 201° (SSW) 2,839 8.6 7.5°
Reaches altitude 10° 05:15:26 10° 196° (SSW) 1,961 7.8 7.8°
Maximum altitude 05:19:41 53° 120° (ESE) 787 6.7 8.5°
Drops below altitude 10° 05:24:19 10° 44° (NE) 2,124 9.5 9.2°
Sets 05:26:47 0° 40° (NE) 3,102 10.2 9.6°
